Precipitable_Water
0.68 0.65 0.65 0.64 0.61 0.58 0.59 0.58 0.56 0.56 0.54 0.54 0.53 0.52 0.52 0.52 0.50 0.51 0.52 0.51 0.52 0.50 0.48 0.48 0.50 0.51 0.51 0.50 0.48 0.48 0.47 0.47 0.47 0.47 0.45 0.44 0.44 0.44 0.44 0.44 0.43 0.42 0.42 0.41 0.42 0.41 0.42 0.44 0.49 0.54 0.60 0.62 0.65 0.68 0.69 0.73 0.76 0.75 0.79 0.84 0.90 0.95 0.93 0.85 0.73 0.68 0.69 0.82 0.80 0.81 0.93 0.97 0.97 1.06 1.08 1.15 1.19 1.24 1.32 1.35 1.36 1.35 1.35 1.33 1.32
0.69 0.68 0.69 0.66 0.62 0.62 0.61 0.60 0.58 0.56 0.54 0.54 0.52 0.51 0.51 0.50 0.51 0.52 0.50 0.51 0.51 0.49 0.48 0.51 0.51 0.51 0.49 0.49 0.48 0.48 0.47 0.47 0.47 0.46 0.45 0.44 0.43 0.44 0.43 0.44 0.43 0.43 0.42 0.40 0.41 0.42 0.41 0.40 0.42 0.48 0.55 0.57 0.61 0.64 0.68 0.70 0.78 0.83 0.75 0.71 0.70 0.76 0.90 0.89 0.85 0.75 0.60 0.72 0.79 0.88 0.93 1.00 0.93 1.05 1.07 1.12 1.16 1.21 1.27 1.35 1.40 1.41 1.38 1.38 1.37
0.74 0.73 0.69 0.65 0.63 0.64 0.62 0.60 0.58 0.56 0.54 0.54 0.52 0.51 0.51 0.51 0.52 0.50 0.49 0.49 0.50 0.50 0.50 0.51 0.51 0.50 0.49 0.48 0.47 0.46 0.46 0.45 0.46 0.46 0.45 0.44 0.43 0.43 0.44 0.44 0.43 0.42 0.41 0.42 0.43 0.44 0.42 0.40 0.39 0.42 0.48 0.51 0.55 0.60 0.66 0.68 0.72 0.75 0.78 0.77 0.69 0.68 0.74 0.85 0.87 0.78 0.73 0.76 0.87 0.84 0.90 0.98 0.96 0.99 1.08 1.17 1.21 1.21 1.24 1.35 1.38 1.42 1.42 1.42 1.42
0.75 0.72 0.68 0.66 0.65 0.63 0.61 0.60 0.58 0.56 0.54 0.55 0.54 0.53 0.53 0.51 0.52 0.50 0.50 0.50 0.50 0.51 0.52 0.52 0.50 0.49 0.47 0.46 0.46 0.45 0.44 0.44 0.45 0.45 0.45 0.44 0.44 0.43 0.44 0.44 0.45 0.44 0.43 0.43 0.44 0.45 0.45 0.44 0.42 0.41 0.42 0.44 0.50 0.55 0.60 0.67 0.69 0.70 0.76 0.87 0.87 0.73 0.68 0.73 0.77 0.77 0.83 0.83 0.90 0.81 0.87 0.96 1.04 1.10 1.13 1.13 1.17 1.20 1.22 1.34 1.41 1.42 1.43 1.45 1.44
0.74 0.72 0.69 0.66 0.64 0.62 0.60 0.59 0.57 0.56 0.55 0.56 0.54 0.54 0.52 0.52 0.52 0.51 0.50 0.50 0.51 0.51 0.51 0.50 0.48 0.46 0.45 0.44 0.44 0.44 0.44 0.44 0.44 0.45 0.46 0.46 0.46 0.45 0.45 0.45 0.46 0.46 0.46 0.46 0.46 0.47 0.47 0.46 0.47 0.46 0.43 0.39 0.42 0.48 0.55 0.59 0.66 0.69 0.69 0.75 0.89 0.97 0.90 0.74 0.70 0.75 0.79 0.84 0.88 0.85 0.92 1.04 1.09 1.11 1.13 1.05 1.06 1.10 1.14 1.27 1.37 1.40 1.42 1.45 1.45
0.74 0.71 0.70 0.68 0.65 0.62 0.59 0.57 0.56 0.56 0.56 0.56 0.55 0.54 0.53 0.52 0.52 0.52 0.52 0.50 0.50 0.50 0.48 0.47 0.46 0.44 0.44 0.44 0.44 0.44 0.45 0.45 0.45 0.45 0.46 0.46 0.46 0.46 0.47 0.47 0.47 0.47 0.47 0.47 0.47 0.47 0.47 0.48 0.49 0.49 0.49 0.45 0.40 0.43 0.50 0.55 0.61 0.66 0.69 0.71 0.75 0.87 0.97 0.96 0.81 0.72 0.77 0.82 0.86 0.89 1.03 1.05 1.05 1.08 1.09 1.03 0.98 0.96 1.01 1.15 1.32 1.41 1.40 1.37 1.38
0.74 0.71 0.70 0.67 0.63 0.61 0.59 0.58 0.58 0.57 0.57 0.57 0.56 0.54 0.53 0.53 0.52 0.51 0.51 0.49 0.47 0.46 0.45 0.44 0.45 0.44 0.43 0.43 0.43 0.44 0.44 0.45 0.45 0.45 0.44 0.45 0.45 0.45 0.45 0.46 0.47 0.47 0.48 0.48 0.48 0.48 0.48 0.48 0.49 0.50 0.50 0.51 0.50 0.45 0.43 0.48 0.56 0.60 0.67 0.71 0.73 0.76 0.83 0.94 0.95 0.81 0.70 0.70 0.78 0.91 1.01 1.10 1.11 1.02 1.06 1.01 0.95 0.93 0.89 0.96 1.14 1.29 1.34 1.33 1.30
0.74 0.71 0.70 0.67 0.63 0.60 0.61 0.61 0.60 0.60 0.59 0.59 0.57 0.55 0.53 0.52 0.51 0.51 0.49 0.46 0.45 0.44 0.44 0.44 0.44 0.44 0.43 0.43 0.44 0.45 0.44 0.44 0.44 0.45 0.45 0.45 0.45 0.46 0.46 0.46 0.46 0.46 0.47 0.48 0.48 0.48 0.48 0.49 0.49 0.49 0.50 0.50 0.52 0.53 0.50 0.44 0.49 0.54 0.61 0.67 0.72 0.74 0.74 0.79 0.87 0.91 0.81 0.72 0.72 0.78 0.91 0.97 1.04 1.11 1.07 1.01 0.92 0.87 0.86 0.85 0.90 1.07 1.20 1.26 1.29
0.75 0.73 0.70 0.66 0.62 0.63 0.64 0.64 0.64 0.62 0.61 0.59 0.56 0.54 0.53 0.52 0.50 0.48 0.47 0.45 0.45 0.45 0.45 0.44 0.43 0.43 0.43 0.43 0.43 0.44 0.43 0.43 0.43 0.44 0.44 0.45 0.46 0.46 0.47 0.48 0.48 0.47 0.47 0.48 0.49 0.49 0.50 0.50 0.51 0.51 0.52 0.52 0.53 0.53 0.54 0.53 0.47 0.45 0.53 0.60 0.63 0.67 0.70 0.72 0.78 0.86 0.92 0.85 0.74 0.77 0.82 0.95 1.01 1.00 0.92 0.94 0.94 0.84 0.82 0.81 0.86 0.99 1.14 1.19 1.25
0.77 0.74 0.69 0.65 0.65 0.66 0.67 0.66 0.64 0.63 0.60 0.57 0.56 0.54 0.52 0.50 0.48 0.46 0.45 0.45 0.45 0.44 0.44 0.44 0.43 0.42 0.41 0.41 0.42 0.41 0.41 0.41 0.41 0.41 0.42 0.43 0.45 0.46 0.46 0.47 0.48 0.48 0.48 0.47 0.47 0.48 0.48 0.48 0.49 0.50 0.51 0.52 0.53 0.54 0.54 0.55 0.55 0.50 0.47 0.54 0.58 0.61 0.63 0.66 0.67 0.74 0.82 0.85 0.80 0.75 0.76 0.81 0.88 0.88 0.88 0.94 1.01 1.00 0.88 0.82 0.78 0.83 0.94 1.06 1.14
0.79 0.74 0.67 0.67 0.68 0.69 0.68 0.67 0.65 0.62 0.60 0.58 0.55 0.53 0.50 0.48 0.46 0.45 0.45 0.44 0.44 0.44 0.44 0.42 0.42 0.42 0.40 0.40 0.39 0.40 0.40 0.40 0.39 0.39 0.40 0.41 0.43 0.44 0.44 0.45 0.46 0.46 0.46 0.46 0.45 0.46 0.48 0.49 0.49 0.49 0.49 0.49 0.49 0.50 0.53 0.55 0.56 0.57 0.54 0.51 0.54 0.60 0.60 0.60 0.62 0.66 0.68 0.73 0.79 0.83 0.80 0.78 0.86 0.97 1.02 1.00 0.97 0.90 0.84 0.83 0.83 0.82 0.78 0.82 0.88
0.80 0.77 0.73 0.72 0.71 0.69 0.68 0.66 0.64 0.62 0.60 0.57 0.54 0.51 0.49 0.47 0.46 0.45 0.44 0.44 0.44 0.43 0.42 0.42 0.41 0.41 0.40 0.40 0.39 0.39 0.40 0.40 0.39 0.38 0.39 0.42 0.43 0.44 0.44 0.43 0.44 0.44 0.44 0.44 0.44 0.45 0.45 0.46 0.48 0.49 0.49 0.49 0.50 0.50 0.49 0.50 0.53 0.55 0.57 0.56 0.52 0.54 0.62 0.63 0.61 0.62 0.64 0.64 0.68 0.74 0.82 0.85 0.88 0.90 0.92 0.96 0.97 0.99 0.97 0.91 0.85 0.80 0.77 0.77 0.83
0.85 0.81 0.78 0.74 0.71 0.69 0.67 0.65 0.62 0.60 0.58 0.55 0.52 0.50 0.48 0.47 0.45 0.44 0.43 0.43 0.42 0.41 0.42 0.41 0.40 0.40 0.39 0.38 0.38 0.39 0.38 0.39 0.37 0.38 0.41 0.43 0.43 0.44 0.44 0.44 0.43 0.42 0.43 0.43 0.43 0.43 0.44 0.44 0.45 0.47 0.48 0.49 0.50 0.51 0.50 0.49 0.50 0.51 0.54 0.56 0.58 0.55 0.53 0.59 0.65 0.65 0.66 0.67 0.65 0.68 0.75 0.83 0.87 0.88 0.88 0.88 0.94 0.91 0.92 0.89 0.84 0.78 0.76 0.81 0.84
0.89 0.82 0.79 0.74 0.70 0.67 0.65 0.63 0.60 0.58 0.56 0.54 0.52 0.49 0.47 0.45 0.45 0.45 0.44 0.44 0.42 0.42 0.41 0.40 0.40 0.39 0.38 0.37 0.37 0.37 0.37 0.38 0.39 0.41 0.42 0.43 0.44 0.45 0.45 0.45 0.45 0.44 0.44 0.44 0.44 0.43 0.43 0.43 0.43 0.43 0.46 0.47 0.48 0.49 0.50 0.50 0.49 0.50 0.50 0.51 0.55 0.60 0.60 0.56 0.57 0.62 0.66 0.66 0.65 0.63 0.69 0.81 0.81 0.88 0.99 1.03 0.97 0.89 0.86 0.80 0.80 0.75 0.80 0.90 0.97
0.82 0.83 0.77 0.74 0.69 0.66 0.63 0.62 0.60 0.57 0.54 0.51 0.49 0.47 0.46 0.45 0.45 0.45 0.44 0.43 0.42 0.41 0.40 0.38 0.38 0.37 0.37 0.37 0.36 0.35 0.37 0.39 0.41 0.42 0.43 0.43 0.44 0.45 0.45 0.45 0.44 0.44 0.44 0.45 0.45 0.45 0.45 0.45 0.45 0.44 0.45 0.46 0.47 0.48 0.48 0.49 0.49 0.48 0.48 0.48 0.49 0.52 0.57 0.59 0.60 0.61 0.62 0.65 0.67 0.66 0.67 0.75 0.83 0.90 0.95 1.00 0.98 1.03 0.98 0.87 0.83 0.88 0.96 1.02 0.98
0.76 0.77 0.75 0.70 0.66 0.65 0.63 0.61 0.58 0.56 0.52 0.49 0.47 0.46 0.46 0.45 0.44 0.46 0.45 0.44 0.43 0.41 0.40 0.38 0.36 0.35 0.35 0.35 0.35 0.35 0.38 0.40 0.41 0.42 0.43 0.43 0.44 0.44 0.43 0.43 0.42 0.42 0.42 0.43 0.43 0.44 0.44 0.45 0.44 0.44 0.45 0.45 0.46 0.48 0.48 0.48 0.47 0.46 0.46 0.46 0.47 0.48 0.51 0.57 0.63 0.62 0.64 0.69 0.71 0.70 0.70 0.72 0.76 0.85 0.92 0.93 0.94 1.00 1.04 1.04 0.98 0.91 0.93 0.96 0.93
0.74 0.75 0.73 0.68 0.66 0.65 0.63 0.61 0.58 0.54 0.51 0.48 0.47 0.46 0.46 0.46 0.46 0.46 0.43 0.42 0.40 0.38 0.35 0.32 0.33 0.33 0.33 0.34 0.34 0.35 0.38 0.40 0.41 0.42 0.42 0.43 0.43 0.42 0.42 0.41 0.41 0.40 0.40 0.41 0.42 0.42 0.43 0.43 0.43 0.43 0.44 0.45 0.47 0.48 0.49 0.49 0.47 0.45 0.45 0.45 0.46 0.47 0.45 0.50 0.58 0.64 0.66 0.64 0.67 0.72 0.74 0.75 0.76 0.79 0.84 0.88 0.94 0.96 0.95 0.93 0.95 0.94 0.87 0.86 0.88
0.73 0.72 0.70 0.68 0.66 0.64 0.62 0.59 0.56 0.51 0.49 0.48 0.47 0.47 0.46 0.45 0.44 0.43 0.40 0.38 0.34 0.31 0.32 0.32 0.33 0.34 0.34 0.33 0.35 0.36 0.37 0.40 0.42 0.42 0.43 0.43 0.43 0.42 0.42 0.41 0.40 0.40 0.40 0.40 0.41 0.41 0.42 0.43 0.44 0.45 0.45 0.45 0.48 0.49 0.50 0.50 0.48 0.46 0.45 0.44 0.43 0.44 0.43 0.47 0.53 0.59 0.68 0.70 0.69 0.68 0.70 0.73 0.76 0.79 0.82 0.83 0.84 0.88 0.87 0.81 0.90 0.97 0.91 0.86 0.82
0.69 0.68 0.66 0.68 0.66 0.64 0.61 0.57 0.52 0.49 0.47 0.47 0.46 0.45 0.43 0.41 0.40 0.39 0.35 0.33 0.32 0.33 0.33 0.32 0.31 0.30 0.32 0.34 0.36 0.37 0.38 0.40 0.42 0.43 0.44 0.44 0.44 0.43 0.42 0.41 0.39 0.39 0.40 0.39 0.41 0.42 0.42 0.44 0.45 0.46 0.47 0.48 0.49 0.50 0.51 0.52 0.50 0.49 0.47 0.45 0.42 0.41 0.43 0.48 0.49 0.52 0.60 0.69 0.73 0.71 0.69 0.71 0.75 0.78 0.82 0.85 0.84 0.82 0.82 0.84 0.88 0.87 0.90 0.91 0.87
0.69 0.68 0.67 0.66 0.66 0.63 0.59 0.52 0.50 0.48 0.47 0.45 0.43 0.42 0.41 0.38 0.36 0.34 0.34 0.34 0.33 0.33 0.31 0.29 0.28 0.30 0.33 0.35 0.37 0.38 0.39 0.41 0.43 0.44 0.44 0.44 0.45 0.44 0.43 0.41 0.39 0.40 0.41 0.41 0.41 0.42 0.44 0.45 0.46 0.48 0.50 0.51 0.52 0.53 0.53 0.53 0.51 0.51 0.51 0.47 0.43 0.40 0.47 0.50 0.50 0.52 0.57 0.62 0.67 0.72 0.70 0.74 0.77 0.81 0.84 0.85 0.85 0.83 0.80 0.82 0.83 0.82 0.84 0.85 0.85
0.67 0.65 0.64 0.61 0.60 0.58 0.53 0.52 0.50 0.49 0.47 0.45 0.41 0.38 0.37 0.37 0.37 0.36 0.34 0.34 0.33 0.32 0.29 0.28 0.30 0.31 0.33 0.35 0.36 0.39 0.41 0.42 0.43 0.44 0.44 0.45 0.45 0.45 0.44 0.43 0.44 0.44 0.44 0.44 0.44 0.43 0.45 0.46 0.49 0.51 0.53 0.55 0.56 0.56 0.55 0.55 0.54 0.54 0.53 0.49 0.47 0.48 0.52 0.50 0.49 0.52 0.53 0.57 0.63 0.68 0.70 0.72 0.77 0.83 0.85 0.83 0.84 0.84 0.82 0.81 0.82 0.82 0.79 0.76 0.73
0.64 0.63 0.60 0.57 0.56 0.54 0.53 0.52 0.50 0.46 0.43 0.41 0.39 0.38 0.38 0.38 0.37 0.36 0.35 0.33 0.32 0.30 0.29 0.29 0.30 0.31 0.33 0.35 0.37 0.39 0.42 0.43 0.43 0.44 0.45 0.45 0.46 0.46 0.45 0.46 0.47 0.47 0.45 0.45 0.46 0.46 0.48 0.49 0.51 0.55 0.58 0.59 0.60 0.60 0.59 0.58 0.57 0.56 0.55 0.54 0.53 0.53 0.51 0.51 0.51 0.51 0.50 0.54 0.58 0.63 0.66 0.69 0.76 0.82 0.86 0.85 0.85 0.85 0.85 0.84 0.82 0.79 0.81 0.80 0.74
0.61 0.59 0.57 0.55 0.54 0.52 0.50 0.47 0.45 0.44 0.43 0.41 0.38 0.36 0.35 0.35 0.35 0.35 0.33 0.32 0.30 0.28 0.28 0.29 0.30 0.30 0.32 0.33 0.36 0.38 0.41 0.43 0.44 0.44 0.45 0.45 0.46 0.47 0.48 0.48 0.49 0.50 0.48 0.46 0.47 0.49 0.52 0.54 0.56 0.59 0.61 0.61 0.62 0.62 0.62 0.61 0.60 0.58 0.57 0.57 0.56 0.55 0.54 0.53 0.51 0.50 0.49 0.51 0.54 0.57 0.62 0.65 0.70 0.80 0.86 0.85 0.85 0.87 0.87 0.86 0.86 0.88 0.87 0.84 0.85
0.59 0.56 0.54 0.52 0.50 0.48 0.46 0.45 0.44 0.42 0.39 0.37 0.33 0.32 0.31 0.33 0.34 0.33 0.32 0.30 0.28 0.27 0.28 0.30 0.30 0.29 0.29 0.31 0.34 0.38 0.41 0.42 0.43 0.44 0.45 0.46 0.47 0.48 0.49 0.50 0.51 0.51 0.52 0.51 0.53 0.55 0.56 0.58 0.61 0.63 0.64 0.65 0.65 0.65 0.65 0.63 0.62 0.61 0.60 0.59 0.58 0.57 0.56 0.53 0.51 0.50 0.49 0.49 0.52 0.55 0.59 0.63 0.65 0.74 0.83 0.90 0.91 0.90 0.93 0.91 0.89 0.90 0.94 0.93 0.89
0.54 0.52 0.51 0.49 0.46 0.43 0.42 0.39 0.37 0.34 0.33 0.32 0.32 0.31 0.32 0.33 0.32 0.31 0.29 0.28 0.28 0.28 0.29 0.28 0.27 0.28 0.29 0.29 0.32 0.36 0.40 0.41 0.43 0.44 0.46 0.47 0.49 0.50 0.51 0.52 0.53 0.54 0.54 0.56 0.58 0.59 0.61 0.63 0.66 0.67 0.68 0.69 0.68 0.67 0.67 0.65 0.65 0.64 0.63 0.62 0.61 0.59 0.56 0.54 0.52 0.51 0.49 0.47 0.50 0.56 0.61 0.64 0.65 0.72 0.86 0.90 0.95 0.99 0.99 0.97 0.94 0.90 0.87 0.86 0.85
0.53 0.52 0.49 0.45 0.40 0.38 0.36 0.34 0.33 0.34 0.33 0.33 0.33 0.33 0.32 0.31 0.30 0.28 0.27 0.27 0.29 0.28 0.26 0.26 0.27 0.28 0.28 0.29 0.33 0.36 0.39 0.41 0.43 0.45 0.47 0.49 0.51 0.52 0.53 0.54 0.56 0.58 0.59 0.59 0.61 0.62 0.64 0.66 0.68 0.69 0.70 0.71 0.70 0.68 0.67 0.67 0.67 0.67 0.66 0.64 0.62 0.59 0.58 0.56 0.54 0.51 0.49 0.50 0.53 0.57 0.62 0.66 0.68 0.76 0.84 0.87 0.84 0.92 0.94 0.94 0.91 0.87 0.84 0.79 0.75
0.50 0.45 0.42 0.40 0.37 0.35 0.34 0.33 0.34 0.34 0.34 0.33 0.34 0.33 0.33 0.30 0.28 0.27 0.27 0.27 0.26 0.25 0.25 0.26 0.28 0.27 0.27 0.29 0.34 0.37 0.39 0.42 0.44 0.47 0.49 0.51 0.52 0.54 0.55 0.57 0.59 0.60 0.60 0.61 0.62 0.63 0.65 0.67 0.68 0.70 0.71 0.72 0.71 0.70 0.69 0.69 0.67 0.67 0.66 0.64 0.62 0.60 0.59 0.58 0.56 0.53 0.52 0.54 0.57 0.62 0.68 0.70 0.72 0.78 0.82 0.83 0.83 0.87 0.93 0.96 0.94 0.91 0.85 0.80 0.71
0.44 0.41 0.38 0.37 0.36 0.36 0.35 0.35 0.35 0.35 0.35 0.34 0.34 0.35 0.34 0.31 0.28 0.28 0.29 0.28 0.24 0.24 0.26 0.27 0.28 0.27 0.27 0.31 0.35 0.38 0.40 0.44 0.46 0.48 0.50 0.52 0.54 0.55 0.57 0.57 0.58 0.59 0.60 0.61 0.63 0.65 0.66 0.68 0.69 0.71 0.72 0.71 0.70 0.69 0.68 0.68 0.67 0.66 0.66 0.65 0.64 0.63 0.62 0.61 0.60 0.58 0.58 0.60 0.63 0.69 0.70 0.68 0.67 0.76 0.83 0.85 0.84 0.87 0.91 0.92 0.94 0.92 0.89 0.83 0.74
0.43 0.39 0.37 0.37 0.37 0.37 0.37 0.37 0.36 0.36 0.36 0.37 0.37 0.37 0.35 0.33 0.31 0.31 0.34 0.31 0.27 0.26 0.27 0.29 0.29 0.29 0.30 0.34 0.37 0.39 0.42 0.45 0.49 0.53 0.53 0.55 0.55 0.55 0.56 0.57 0.58 0.60 0.61 0.63 0.63 0.65 0.66 0.66 0.67 0.69 0.69 0.68 0.67 0.67 0.66 0.65 0.64 0.64 0.63 0.63 0.64 0.64 0.63 0.61 0.58 0.58 0.60 0.62 0.64 0.67 0.66 0.64 0.67 0.77 0.83 0.85 0.85 0.88 0.91 0.91 0.92 0.92 0.92 0.90 0.81
0.40 0.39 0.38 0.38 0.39 0.37 0.37 0.38 0.38 0.38 0.37 0.38 0.38 0.38 0.40 0.38 0.35 0.33 0.32 0.31 0.29 0.30 0.31 0.30 0.31 0.30 0.33 0.39 0.44 0.44 0.46 0.49 0.53 0.54 0.55 0.56 0.58 0.58 0.59 0.59 0.61 0.61 0.63 0.65 0.64 0.62 0.63 0.64 0.66 0.67 0.67 0.67 0.66 0.65 0.63 0.62 0.60 0.59 0.59 0.61 0.61 0.61 0.61 0.61 0.61 0.61 0.63 0.64 0.67 0.68 0.65 0.63 0.69 0.77 0.82 0.86 0.88 0.89 0.91 0.90 0.88 0.89 0.86 0.84 0.81
0.40 0.39 0.39 0.39 0.39 0.38 0.38 0.39 0.39 0.39 0.40 0.39 0.39 0.38 0.38 0.39 0.39 0.36 0.32 0.29 0.28 0.30 0.31 0.32 0.31 0.32 0.37 0.41 0.47 0.51 0.53 0.53 0.54 0.55 0.56 0.57 0.57 0.58 0.59 0.60 0.62 0.64 0.65 0.65 0.64 0.63 0.63 0.64 0.66 0.68 0.68 0.69 0.67 0.65 0.62 0.59 0.58 0.57 0.58 0.60 0.60 0.60 0.60 0.60 0.61 0.63 0.64 0.66 0.69 0.68 0.65 0.67 0.70 0.76 0.82 0.86 0.88 0.88 0.86 0.86 0.86 0.86 0.84 0.81 0.77
0.40 0.40 0.41 0.40 0.40 0.40 0.41 0.41 0.41 0.41 0.40 0.40 0.39 0.39 0.38 0.36 0.36 0.36 0.31 0.27 0.28 0.30 0.31 0.31 0.32 0.34 0.38 0.45 0.49 0.51 0.53 0.53 0.54 0.55 0.56 0.57 0.58 0.59 0.60 0.61 0.63 0.65 0.66 0.66 0.63 0.64 0.66 0.66 0.67 0.67 0.69 0.69 0.68 0.64 0.61 0.60 0.60 0.60 0.61 0.61 0.61 0.62 0.61 0.61 0.64 0.66 0.67 0.69 0.67 0.64 0.66 0.69 0.73 0.77 0.82 0.85 0.87 0.85 0.82 0.80 0.80 0.79 0.79 0.78 0.76
0.42 0.41 0.41 0.40 0.40 0.42 0.42 0.42 0.42 0.41 0.41 0.40 0.40 0.40 0.38 0.36 0.33 0.27 0.25 0.28 0.29 0.30 0.30 0.30 0.33 0.35 0.38 0.45 0.51 0.53 0.52 0.53 0.54 0.55 0.56 0.57 0.59 0.60 0.61 0.62 0.64 0.65 0.66 0.64 0.63 0.64 0.66 0.67 0.67 0.69 0.70 0.69 0.68 0.64 0.62 0.61 0.61 0.62 0.63 0.64 0.65 0.67 0.69 0.70 0.71 0.70 0.69 0.68 0.65 0.66 0.70 0.72 0.76 0.77 0.80 0.84 0.84 0.80 0.79 0.77 0.76 0.75 0.74 0.71 0.67
0.43 0.42 0.40 0.41 0.42 0.43 0.43 0.43 0.43 0.43 0.42 0.41 0.41 0.40 0.39 0.37 0.31 0.24 0.21 0.22 0.26 0.28 0.29 0.31 0.34 0.36 0.39 0.45 0.50 0.53 0.53 0.53 0.54 0.55 0.56 0.58 0.59 0.60 0.61 0.61 0.63 0.65 0.65 0.63 0.63 0.63 0.66 0.66 0.68 0.69 0.71 0.72 0.70 0.66 0.64 0.64 0.64 0.63 0.63 0.64 0.65 0.67 0.69 0.71 0.69 0.66 0.65 0.64 0.67 0.71 0.73 0.74 0.77 0.78 0.82 0.84 0.82 0.81 0.77 0.75 0.73 0.69 0.66 0.68 0.71
0.43 0.41 0.41 0.42 0.43 0.43 0.43 0.44 0.44 0.44 0.43 0.42 0.41 0.40 0.39 0.35 0.28 0.23 0.22 0.22 0.23 0.23 0.24 0.28 0.33 0.36 0.39 0.44 0.48 0.52 0.53 0.53 0.54 0.55 0.56 0.57 0.59 0.60 0.60 0.59 0.59 0.61 0.63 0.64 0.64 0.64 0.65 0.66 0.67 0.69 0.71 0.71 0.70 0.68 0.67 0.67 0.67 0.67 0.66 0.66 0.66 0.67 0.68 0.67 0.65 0.63 0.63 0.67 0.71 0.73 0.72 0.74 0.78 0.81 0.83 0.81 0.78 0.76 0.74 0.72 0.69 0.66 0.64 0.67 0.67
0.40 0.42 0.42 0.43 0.44 0.43 0.43 0.44 0.45 0.45 0.44 0.42 0.41 0.40 0.38 0.31 0.27 0.25 0.24 0.24 0.24 0.23 0.24 0.28 0.31 0.34 0.39 0.43 0.47 0.51 0.53 0.53 0.54 0.55 0.55 0.56 0.58 0.59 0.56 0.57 0.58 0.59 0.60 0.62 0.63 0.64 0.66 0.67 0.68 0.69 0.71 0.72 0.72 0.70 0.70 0.69 0.69 0.69 0.69 0.68 0.67 0.67 0.66 0.65 0.65 0.65 0.67 0.70 0.71 0.71 0.75 0.77 0.81 0.82 0.82 0.79 0.77 0.75 0.73 0.71 0.68 0.65 0.61 0.62 0.65
0.43 0.43 0.43 0.43 0.43 0.44 0.44 0.45 0.46 0.47 0.46 0.43 0.41 0.40 0.36 0.27 0.28 0.29 0.28 0.27 0.26 0.26 0.26 0.28 0.30 0.32 0.37 0.41 0.45 0.50 0.52 0.53 0.54 0.54 0.55 0.56 0.57 0.57 0.57 0.57 0.57 0.58 0.58 0.60 0.62 0.63 0.64 0.66 0.68 0.69 0.70 0.71 0.72 0.72 0.71 0.71 0.71 0.71 0.69 0.69 0.68 0.66 0.64 0.67 0.69 0.69 0.68 0.68 0.68 0.74 0.77 0.77 0.80 0.81 0.79 0.75 0.72 0.72 0.72 0.71 0.69 0.66 0.64 0.65 0.66
0.44 0.43 0.43 0.43 0.44 0.44 0.45 0.47 0.49 0.47 0.44 0.42 0.41 0.38 0.34 0.29 0.29 0.30 0.30 0.29 0.28 0.28 0.27 0.27 0.28 0.30 0.33 0.37 0.43 0.48 0.50 0.52 0.54 0.54 0.55 0.55 0.55 0.56 0.57 0.58 0.58 0.56 0.57 0.60 0.61 0.62 0.63 0.65 0.67 0.68 0.70 0.71 0.71 0.72 0.72 0.71 0.72 0.71 0.69 0.68 0.68 0.67 0.68 0.67 0.69 0.71 0.71 0.70 0.69 0.71 0.73 0.75 0.75 0.75 0.74 0.72 0.70 0.70 0.69 0.68 0.67 0.61 0.58 0.58 0.58
0.45 0.45 0.45 0.44 0.45 0.46 0.47 0.48 0.50 0.47 0.45 0.42 0.40 0.36 0.34 0.31 0.30 0.31 0.31 0.31 0.31 0.31 0.31 0.30 0.29 0.30 0.33 0.37 0.40 0.46 0.49 0.49 0.51 0.51 0.53 0.54 0.55 0.56 0.56 0.57 0.57 0.57 0.58 0.60 0.61 0.62 0.63 0.64 0.67 0.69 0.70 0.71 0.71 0.72 0.72 0.71 0.71 0.70 0.70 0.68 0.66 0.67 0.68 0.67 0.66 0.67 0.69 0.71 0.72 0.74 0.75 0.75 0.75 0.74 0.72 0.70 0.69 0.68 0.67 0.65 0.63 0.58 0.53 0.54 0.57
0.46 0.46 0.46 0.46 0.47 0.49 0.49 0.50 0.50 0.47 0.45 0.41 0.39 0.37 0.34 0.32 0.32 0.32 0.32 0.33 0.33 0.33 0.33 0.32 0.30 0.31 0.35 0.36 0.38 0.43 0.45 0.47 0.50 0.52 0.52 0.53 0.53 0.54 0.56 0.56 0.57 0.56 0.56 0.58 0.60 0.62 0.63 0.64 0.66 0.67 0.69 0.70 0.70 0.71 0.72 0.71 0.70 0.69 0.69 0.68 0.67 0.65 0.66 0.68 0.69 0.70 0.71 0.73 0.73 0.74 0.74 0.74 0.74 0.72 0.70 0.68 0.67 0.65 0.63 0.63 0.60 0.55 0.53 0.55 0.58
0.49 0.49 0.49 0.49 0.50 0.50 0.51 0.50 0.45 0.43 0.43 0.42 0.41 0.38 0.35 0.35 0.34 0.34 0.34 0.34 0.34 0.34 0.34 0.34 0.33 0.33 0.36 0.37 0.38 0.41 0.44 0.47 0.49 0.52 0.53 0.53 0.53 0.53 0.55 0.56 0.57 0.57 0.57 0.58 0.60 0.61 0.62 0.63 0.65 0.66 0.68 0.69 0.70 0.71 0.71 0.71 0.69 0.68 0.67 0.67 0.67 0.66 0.65 0.67 0.68 0.69 0.70 0.71 0.72 0.72 0.71 0.71 0.70 0.69 0.67 0.66 0.64 0.63 0.62 0.61 0.58 0.54 0.53 0.55 0.56
0.51 0.51 0.50 0.50 0.50 0.50 0.49 0.46 0.44 0.44 0.43 0.43 0.42 0.40 0.38 0.37 0.36 0.36 0.35 0.36 0.35 0.35 0.35 0.35 0.35 0.35 0.36 0.37 0.37 0.39 0.42 0.46 0.49 0.51 0.53 0.53 0.53 0.53 0.54 0.55 0.56 0.56 0.57 0.58 0.60 0.60 0.61 0.62 0.63 0.65 0.66 0.67 0.68 0.69 0.70 0.70 0.69 0.68 0.67 0.68 0.69 0.68 0.66 0.65 0.67 0.67 0.68 0.68 0.67 0.67 0.67 0.68 0.67 0.67 0.66 0.64 0.63 0.63 0.62 0.59 0.55 0.53 0.54 0.57 0.59
0.51 0.50 0.48 0.48 0.48 0.48 0.46 0.45 0.45 0.44 0.42 0.41 0.40 0.40 0.39 0.39 0.38 0.37 0.36 0.37 0.37 0.35 0.36 0.36 0.36 0.36 0.35 0.36 0.37 0.36 0.39 0.43 0.47 0.50 0.52 0.53 0.53 0.53 0.53 0.55 0.56 0.57 0.58 0.58 0.60 0.61 0.62 0.62 0.62 0.64 0.64 0.65 0.67 0.68 0.68 0.69 0.69 0.69 0.67 0.66 0.68 0.68 0.67 0.66 0.65 0.64 0.65 0.64 0.64 0.64 0.65 0.65 0.65 0.65 0.64 0.63 0.62 0.61 0.60 0.56 0.51 0.51 0.55 0.58 0.58
0.50 0.48 0.46 0.46 0.46 0.46 0.45 0.44 0.42 0.41 0.40 0.39 0.40 0.40 0.41 0.41 0.41 0.40 0.39 0.39 0.39 0.36 0.36 0.37 0.37 0.37 0.36 0.35 0.36 0.35 0.36 0.40 0.45 0.48 0.51 0.52 0.53 0.53 0.53 0.54 0.55 0.57 0.58 0.59 0.59 0.61 0.61 0.61 0.61 0.63 0.64 0.65 0.66 0.67 0.68 0.69 0.69 0.68 0.67 0.66 0.66 0.66 0.66 0.65 0.65 0.64 0.64 0.63 0.63 0.63 0.64 0.64 0.65 0.63 0.61 0.62 0.62 0.60 0.56 0.51 0.49 0.51 0.54 0.54 0.52
0.49 0.45 0.45 0.46 0.46 0.45 0.43 0.43 0.41 0.39 0.38 0.39 0.39 0.40 0.41 0.42 0.43 0.44 0.43 0.43 0.42 0.38 0.38 0.38 0.37 0.38 0.38 0.37 0.35 0.34 0.34 0.37 0.42 0.46 0.49 0.51 0.52 0.53 0.53 0.54 0.55 0.56 0.57 0.58 0.59 0.58 0.58 0.59 0.60 0.61 0.62 0.63 0.65 0.66 0.66 0.65 0.66 0.67 0.67 0.67 0.66 0.65 0.65 0.65 0.65 0.65 0.65 0.63 0.63 0.62 0.63 0.64 0.63 0.62 0.61 0.61 0.59 0.55 0.51 0.51 0.53 0.53 0.53 0.52 0.52
0.46 0.44 0.43 0.43 0.43 0.43 0.42 0.41 0.39 0.38 0.38 0.38 0.39 0.39 0.41 0.41 0.42 0.43 0.44 0.45 0.43 0.39 0.39 0.39 0.38 0.38 0.39 0.38 0.37 0.35 0.34 0.34 0.38 0.43 0.47 0.50 0.52 0.53 0.53 0.54 0.55 0.56 0.57 0.57 0.58 0.59 0.57 0.57 0.59 0.59 0.60 0.61 0.63 0.64 0.64 0.64 0.65 0.66 0.66 0.65 0.66 0.66 0.67 0.67 0.66 0.65 0.64 0.63 0.63 0.61 0.62 0.62 0.62 0.61 0.60 0.57 0.53 0.51 0.50 0.54 0.53 0.51 0.51 0.51 0.51
0.44 0.42 0.42 0.41 0.42 0.42 0.41 0.40 0.40 0.39 0.39 0.39 0.39 0.39 0.40 0.40 0.40 0.41 0.42 0.43 0.44 0.44 0.43 0.42 0.41 0.39 0.38 0.39 0.39 0.37 0.35 0.33 0.35 0.40 0.44 0.48 0.51 0.53 0.53 0.54 0.54 0.55 0.57 0.57 0.58 0.58 0.58 0.58 0.57 0.58 0.59 0.60 0.61 0.62 0.60 0.61 0.63 0.65 0.65 0.64 0.63 0.64 0.64 0.65 0.64 0.64 0.63 0.63 0.62 0.60 0.60 0.60 0.59 0.58 0.54 0.53 0.52 0.51 0.50 0.50 0.50 0.51 0.53 0.54 0.54
0.40 0.40 0.40 0.40 0.41 0.41 0.41 0.42 0.41 0.40 0.39 0.39 0.38 0.38 0.40 0.39 0.39 0.39 0.40 0.42 0.43 0.43 0.44 0.45 0.45 0.44 0.41 0.39 0.40 0.40 0.38 0.36 0.36 0.38 0.40 0.45 0.49 0.52 0.53 0.54 0.54 0.55 0.56 0.56 0.57 0.57 0.57 0.57 0.57 0.56 0.56 0.57 0.58 0.60 0.59 0.59 0.59 0.61 0.62 0.62 0.60 0.61 0.61 0.62 0.62 0.62 0.62 0.62 0.61 0.59 0.58 0.56 0.55 0.55 0.55 0.54 0.53 0.53 0.53 0.55 0.57 0.56 0.54 0.53 0.53
0.37 0.39 0.38 0.38 0.38 0.38 0.39 0.40 0.40 0.40 0.39 0.39 0.36 0.37 0.38 0.38 0.38 0.39 0.40 0.41 0.42 0.43 0.43 0.44 0.45 0.46 0.45 0.43 0.42 0.41 0.40 0.38 0.37 0.37 0.38 0.41 0.45 0.49 0.52 0.54 0.55 0.55 0.55 0.55 0.56 0.56 0.57 0.57 0.58 0.58 0.58 0.58 0.58 0.59 0.59 0.60 0.59 0.60 0.61 0.62 0.60 0.59 0.59 0.59 0.60 0.61 0.60 0.61 0.61 0.60 0.58 0.56 0.57 0.58 0.57 0.56 0.56 0.56 0.57 0.55 0.53 0.52 0.51 0.52 0.52
0.37 0.38 0.37 0.37 0.37 0.37 0.38 0.38 0.38 0.39 0.39 0.37 0.35 0.35 0.36 0.36 0.37 0.38 0.39 0.40 0.41 0.41 0.43 0.43 0.44 0.45 0.46 0.46 0.44 0.42 0.42 0.41 0.39 0.38 0.38 0.39 0.41 0.45 0.48 0.51 0.54 0.55 0.55 0.55 0.56 0.56 0.57 0.57 0.57 0.58 0.58 0.58 0.58 0.59 0.59 0.59 0.59 0.59 0.61 0.61 0.60 0.59 0.59 0.58 0.57 0.57 0.56 0.56 0.57 0.57 0.57 0.57 0.57 0.56 0.55 0.55 0.54 0.53 0.52 0.51 0.51 0.51 0.50 0.49 0.49
0.34 0.34 0.34 0.34 0.35 0.36 0.37 0.37 0.37 0.37 0.37 0.36 0.35 0.35 0.35 0.36 0.36 0.38 0.38 0.38 0.39 0.40 0.41 0.43 0.43 0.44 0.45 0.46 0.47 0.45 0.43 0.42 0.43 0.42 0.40 0.38 0.38 0.40 0.43 0.47 0.50 0.53 0.55 0.56 0.56 0.56 0.57 0.57 0.57 0.57 0.58 0.58 0.58 0.57 0.58 0.58 0.58 0.58 0.60 0.60 0.60 0.60 0.60 0.60 0.60 0.60 0.59 0.59 0.58 0.57 0.56 0.55 0.55 0.55 0.54 0.54 0.54 0.53 0.53 0.52 0.50 0.49 0.48 0.47 0.47
Wind_Speed
24 24 24 23 23 23 23 23 23 23 23 23 24 24 24 25 25 25 25 26 26 27 27 27 27 27 28 28 29 29 30 30 30 30 30 31 31 31 31 31 32 32 32 32 33 33 34 35 35 35 36 36 35 35 36 37 38 38 39 40 40 40 40 40 40 39 38 38 39 39 38 38 36 36 36 36 36 36 36 35 33 32 31 31 32
24 23 23 24 24 24 23 23 23 23 23 24 24 24 25 25 25 25 26 27 27 27 28 28 28 29 29 30 30 30 31 31 31 31 31 32 32 32 32 33 33 32 32 33 33 33 34 35 36 36 36 37 37 36 36 36 37 38 39 40 40 40 40 40 40 39 38 38 39 39 39 38 38 36 36 35 35 36 36 35 34 32 31 30 30
23 23 23 23 24 23 24 24 24 24 24 24 25 25 25 25 26 26 27 27 28 28 28 29 29 30 30 31 31 31 32 32 32 32 33 33 34 34 34 34 34 34 34 34 34 34 35 35 36 37 37 38 38 38 38 37 37 38 39 39 40 41 40 40 41 40 39 38 38 39 39 39 39 38 37 36 35 35 35 35 34 33 31 31 30
24 24 24 24 24 24 24 24 23 24 24 24 25 25 26 26 26 27 27 28 28 28 29 29 30 30 31 32 32 33 33 33 33 34 34 34 34 34 34 34 35 35 35 35 35 35 35 36 36 36 37 38 39 39 39 39 38 38 38 38 39 40 40 41 41 41 40 38 38 39 39 39 39 39 38 37 36 35 35 36 36 34 33 32 30
25 26 26 26 25 25 25 24 24 24 24 25 25 26 26 26 27 27 27 28 28 29 29 30 30 31 32 32 33 33 34 34 34 35 35 35 35 35 35 36 36 36 36 36 36 36 36 37 37 37 37 38 39 39 39 40 40 39 39 38 38 39 40 41 41 41 41 40 39 39 39 39 39 40 40 39 38 37 35 36 37 36 34 33 31
27 27 27 26 26 25 25 25 25 25 26 26 26 26 26 27 27 27 27 28 29 29 30 30 31 32 33 33 34 35 35 35 36 36 36 36 36 37 37 37 37 38 38 38 38 38 38 38 38 38 38 38 39 39 39 40 40 41 41 40 39 38 39 40 41 41 41 41 40 39 40 39 39 40 40 40 39 39 38 36 37 37 37 34 32
28 28 28 27 27 26 26 26 25 25 26 26 26 26 27 27 27 27 28 28 29 30 31 32 32 33 34 35 35 36 36 36 37 37 37 37 38 38 38 38 39 39 39 39 39 39 39 39 39 39 39 39 39 39 40 40 41 41 41 41 40 40 39 40 40 41 42 41 41 40 40 40 40 40 40 40 40 40 40 38 37 38 38 37 35
31 30 29 29 28 27 27 26 26 25 25 25 26 26 26 27 27 27 28 29 29 30 31 32 33 34 35 35 36 36 37 37 37 38 38 38 39 39 39 40 40 40 40 40 40 40 40 40 40 40 40 40 40 40 40 40 41 42 42 41 41 41 40 40 40 40 41 42 41 41 40 40 40 39 39 39 39 39 40 39 38 39 39 38 37
32 31 30 29 28 27 27 26 26 26 26 26 26 26 26 26 26 27 27 28 30 31 32 32 33 34 35 35 36 37 37 38 38 39 39 39 40 40 40 41 41 41 42 42 41 41 41 41 41 41 41 41 41 41 42 42 42 42 43 43 43 42 42 41 40 40 40 41 41 41 40 40 40 40 40 40 40 39 39 39 40 40 39 39 39
33 32 30 29 28 28 27 27 26 26 26 26 26 26 26 26 26 27 28 29 30 30 31 32 33 34 34 35 36 37 38 38 39 39 40 40 40 41 41 42 42 42 43 43 43 43 43 43 43 43 43 43 43 43 43 43 43 43 43 44 44 44 44 43 42 41 41 40 40 40 41 41 41 41 41 42 41 40 40 40 40 40 40 40 39
34 32 30 29 28 28 27 26 26 26 26 26 26 26 26 26 27 28 28 29 30 30 31 32 33 34 35 36 37 37 38 39 39 40 40 40 41 41 42 42 43 43 43 43 44 44 44 44 45 45 45 45 45 45 44 44 44 43 43 44 45 46 46 45 45 44 43 42 41 40 41 41 41 42 42 42 41 41 41 41 40 40 41 41 41
33 32 30 29 28 27 26 26 25 25 26 26 26 26 26 26 27 28 29 29 30 31 31 32 33 34 35 36 37 38 38 39 40 40 40 41 41 41 42 42 43 43 44 44 44 44 45 45 45 45 45 45 45 45 46 46 45 45 44 44 44 46 47 47 47 46 46 45 44 43 42 41 41 42 42 42 42 41 41 41 41 41 41 42 43
31 31 30 28 27 26 25 25 25 25 25 25 26 26 26 27 28 28 29 30 31 31 32 32 34 35 36 37 38 38 39 39 40 40 40 41 41 42 42 42 43 43 44 44 45 45 45 46 46 46 46 46 46 46 46 46 46 46 46 45 44 45 46 48 48 48 48 47 47 46 45 43 42 42 42 42 42 42 42 42 42 42 42 43 43
30 29 29 27 26 25 24 24 24 24 24 25 25 26 27 28 28 29 30 30 30 31 32 33 35 36 37 38 39 39 39 39 39 40 40 40 41 41 42 42 43 43 44 44 45 45 46 46 46 47 47 47 47 47 47 47 47 47 47 46 45 44 44 45 47 48 49 49 49 48 47 46 44 42 42 42 43 43 43 43 43 43 42 42 41
32 30 28 26 25 24 23 23 23 23 24 25 26 26 27 28 29 29 30 30 30 31 32 34 35 37 38 39 39 39 39 39 39 39 40 40 40 41 41 42 43 43 44 44 45 46 46 47 47 47 48 48 48 48 48 48 48 48 48 48 47 46 45 44 44 45 46 48 49 49 48 48 47 45 43 43 43 43 43 43 43 43 42 40 40
34 32 29 26 24 23 23 23 23 23 24 25 26 27 28 28 29 29 29 29 30 31 33 35 37 38 38 39 39 39 39 39 39 39 40 40 41 41 42 43 43 44 44 44 45 46 46 47 47 48 48 49 49 49 49 49 50 50 50 49 49 48 47 46 45 45 45 46 47 48 48 48 49 48 46 44 44 43 41 41 41 41 41 40 39
34 32 29 27 25 23 23 23 24 25 25 26 26 27 28 28 28 28 29 30 31 33 35 37 38 39 39 39 39 39 39 39 40 40 41 41 41 41 42 43 43 44 44 45 45 46 46 47 48 48 49 49 49 50 50 50 51 51 51 50 50 50 49 48 47 46 46 45 46 46 47 47 48 48 48 47 46 44 43 41 40 40 41 41 41
34 31 28 26 25 23 22 23 24 25 25 25 26 26 27 27 28 29 30 31 33 34 36 37 38 39 39 39 39 39 39 40 40 40 41 41 41 41 42 43 44 44 45 45 46 46 47 48 49 49 49 49 49 50 50 50 51 51 51 51 51 51 49 48 47 47 46 46 46 46 46 47 47 47 47 47 47 46 46 44 42 41 41 42 42
34 32 30 28 25 23 23 23 23 24 24 24 25 26 26 28 29 30 31 32 33 35 36 38 38 38 38 38 39 39 39 39 39 40 41 41 42 42 43 44 44 45 45 46 46 46 47 48 49 49 50 50 50 50 50 50 51 51 51 51 52 51 50 48 48 48 47 45 45 44 44 45 46 46 46 46 47 47 47 47 45 43 42 41 40
32 32 31 28 26 24 23 23 23 23 23 24 24 26 27 28 29 30 31 32 34 35 36 37 38 38 38 38 39 39 39 39 39 40 41 41 42 43 43 44 45 45 46 46 46 46 46 47 48 49 50 50 50 50 50 50 50 50 51 52 52 51 49 48 49 49 48 46 45 44 44 44 45 46 46 46 46 46 47 47 47 45 44 42 41
29 28 27 25 24 23 22 22 22 22 23 23 25 26 27 28 29 30 31 32 34 36 37 37 37 37 38 38 39 39 39 39 39 40 41 41 42 43 43 44 44 45 45 46 46 46 46 46 47 47 48 48 49 49 49 50 50 50 50 52 52 51 51 50 50 49 49 48 46 44 44 43 44 44 45 45 46 46 46 46 47 46 45 44 42
24 23 22 21 21 21 21 21 22 22 23 23 24 26 27 28 29 30 31 33 35 36 37 37 37 37 38 38 39 39 39 39 39 40 40 41 42 42 42 43 44 45 45 45 45 45 45 44 44 44 44 45 46 47 48 49 49 50 50 51 52 52 52 52 51 49 50 49 47 45 44 43 43 43 44 44 44 45 45 45 46 46 45 44 43
20 19 19 19 19 20 20 21 21 21 22 23 24 26 27 28 28 29 31 33 34 36 36 37 37 37 37 38 38 38 38 38 39 39 40 40 41 41 42 43 44 45 45 45 44 43 42 41 41 41 42 43 44 45 46 47 48 49 50 50 51 51 52 52 51 50 49 49 49 47 45 43 42 42 43 43 43 43 44 43 44 44 44 43 43
17 17 17 17 18 19 19 19 19 20 21 22 23 25 26 27 28 29 30 32 34 35 35 35 35 36 37 37 38 38 37 37 38 39 39 40 41 41 42 43 44 44 43 42 41 39 38 38 38 39 40 41 42 43 44 45 46 47 48 49 50 50 51 51 51 50 49 49 49 48 45 43 42 42 42 41 41 41 42 41 42 42 42 42 42
15 15 16 17 17 17 17 17 17 18 20 21 23 24 25 26 27 28 30 32 33 33 33 34 34 35 36 37 38 37 37 37 37 38 39 40 40 41 41 42 41 41 40 38 37 36 36 36 37 38 39 40 41 42 43 44 44 45 46 47 48 48 49 49 49 49 48 48 48 47 45 42 41 41 41 40 39 39 39 39 39 40 40 41 41
14 14 14 15 15 15 15 15 16 17 18 20 21 22 23 24 26 29 30 31 31 31 32 33 33 34 36 37 37 37 36 36 36 37 38 39 39 40 40 39 38 37 36 35 35 35 35 35 35 36 36 37 38 39 40 41 42 42 43 44 46 47 47 48 48 48 47 46 46 46 44 41 40 40 40 40 39 38 37 37 37 38 39 40 40
12 12 12 13 12 13 14 14 15 16 17 18 19 21 23 24 26 28 29 29 29 30 31 32 32 34 35 36 36 36 35 35 36 37 37 38 38 37 36 34 34 33 33 33 33 33 33 33 33 33 33 34 35 35 36 37 38 39 39 41 43 45 45 46 46 46 45 45 45 45 43 40 39 39 39 39 39 38 37 36 35 36 37 39 39
11 10 11 10 10 11 13 13 13 14 15 17 19 21 23 25 26 26 27 27 27 28 29 30 32 33 35 36 35 34 34 35 36 37 37 36 35 33 32 31 31 31 31 31 31 31 31 31 31 31 31 31 31 31 32 33 34 35 36 37 39 41 42 44 44 44 44 43 43 43 42 39 38 38 38 37 37 37 36 36 35 34 35 36 37
10 10 10 9 9 10 11 12 13 14 15 17 20 22 24 24 24 25 26 26 26 27 28 30 31 33 34 34 33 33 34 35 36 36 36 34 32 31 30 30 29 29 30 30 30 29 29 29 29 28 28 27 27 28 28 29 30 31 32 33 35 37 38 40 41 41 41 41 41 41 40 38 37 37 36 35 34 34 35 35 35 34 34 34 35
10 10 9 8 8 9 11 12 13 14 16 18 20 22 23 23 23 23 24 25 25 26 28 29 31 32 32 31 31 33 34 35 35 35 33 31 30 29 28 28 28 28 28 28 27 26 27 27 27 26 25 25 24 25 25 25 25 26 27 29 31 34 36 37 37 37 38 39 39 39 38 37 37 36 34 32 32 32 32 33 34 34 33 33 33
10 8 7 7 8 10 11 12 13 14 17 18 20 20 21 21 22 22 22 23 24 26 28 29 30 31 30 30 31 33 34 34 33 32 30 28 27 27 27 27 26 26 25 24 23 23 24 24 23 23 22 21 21 21 20 20 21 22 23 24 27 30 33 34 35 35 36 37 37 37 37 36 36 35 33 31 30 30 31 31 32 32 32 32 33
8 6 6 7 9 11 11 11 12 15 17 18 19 19 19 20 21 22 22 23 25 26 28 28 28 29 30 31 31 32 33 33 31 29 27 26 26 25 25 25 23 22 21 20 20 21 21 21 20 19 18 18 17 17 16 16 18 19 20 21 24 27 29 31 32 33 34 35 35 35 35 35 35 34 33 31 30 29 29 29 29 30 30 30 31
5 5 6 7 9 10 10 11 13 15 17 18 18 17 18 19 21 22 23 23 25 26 27 27 26 27 29 30 31 32 32 31 28 26 25 25 24 24 24 22 20 18 18 18 17 18 17 16 15 15 15 15 15 15 15 16 17 18 19 20 22 23 25 27 30 32 33 33 34 34 34 34 33 33 31 30 29 28 28 27 27 28 28 28 29
4 5 6 7 8 9 10 12 14 15 17 17 16 16 18 19 21 22 23 24 25 26 26 25 25 27 28 29 31 32 31 29 26 25 24 23 23 22 21 19 17 16 16 15 15 15 14 12 11 11 12 13 14 14 15 15 15 16 17 17 19 20 22 25 28 30 31 32 32 32 33 33 32 31 29 29 28 27 26 26 26 26 26 27 28
5 6 7 7 8 10 11 13 15 16 16 16 15 16 18 20 21 22 22 23 24 25 25 24 25 26 27 28 30 31 30 27 25 24 23 22 22 21 18 16 15 14 14 14 14 13 11 10 9 9 10 11 12 14 14 15 14 14 14 15 16 18 22 25 28 29 30 31 31 31 31 31 31 30 29 28 27 26 25 25 25 25 26 27 27
6 6 7 8 9 11 12 14 15 16 15 14 14 16 17 19 20 21 21 22 23 23 23 23 24 25 26 27 29 30 30 27 24 23 21 21 21 19 16 14 13 13 13 13 13 11 10 9 8 9 9 10 11 13 13 14 14 14 14 15 17 19 22 25 27 28 30 30 30 30 30 30 30 29 28 26 26 26 25 25 24 24 25 26 27
5 5 6 8 9 11 13 14 15 15 13 13 14 16 17 18 19 20 21 22 22 22 22 23 23 24 25 26 27 29 29 26 23 21 20 19 18 17 15 13 13 13 12 12 11 10 8 7 7 7 8 9 10 12 13 13 14 14 15 16 17 20 22 24 26 27 28 29 29 30 30 30 29 28 27 26 26 25 25 24 24 24 24 25 26
4 5 7 9 11 12 13 13 14 13 13 13 14 15 16 17 18 20 21 21 22 22 22 22 23 24 25 25 26 28 28 26 23 21 19 18 17 16 14 13 12 12 11 10 9 8 6 6 5 6 7 8 9 11 12 13 13 14 15 15 17 19 21 23 25 26 27 28 29 29 29 29 28 27 26 25 25 24 24 24 24 24 24 24 25
5 7 8 10 11 11 12 13 13 13 12 13 13 14 15 16 17 19 20 21 22 22 21 22 22 23 24 24 25 26 27 26 23 20 19 18 16 15 14 12 12 11 10 9 7 5 4 4 4 4 5 7 8 10 11 12 13 14 14 15 16 18 20 22 24 25 26 27 29 29 29 28 27 25 24 24 24 24 23 23 24 24 24 24 24
6 7 9 9 10 10 11 12 12 12 12 12 13 14 14 15 16 18 20 21 21 21 21 22 22 22 23 23 24 25 26 25 23 20 18 17 16 15 13 12 11 10 9 7 6 4 2 2 2 3 4 6 7 9 11 12 12 13 14 15 16 18 19 21 22 24 24 26 27 28 27 27 26 24 23 23 23 23 22 22 23 23 23 24 24
6 7 8 8 9 10 10 11 10 11 11 12 13 14 14 14 15 17 19 20 20 20 21 21 21 22 22 23 24 25 25 25 23 21 19 17 16 15 14 12 11 9 8 7 5 3 2 2 2 3 4 4 6 8 11 12 13 13 14 15 17 18 19 20 21 23 23 24 25 26 26 25 24 23 23 22 21 21 21 21 21 22 23 24 24
6 7 8 8 8 9 9 9 9 10 12 12 13 13 14 14 15 16 18 19 19 19 20 21 21 21 22 22 23 24 24 24 23 22 20 18 16 15 14 12 10 9 8 6 5 3 2 1 2 3 4 4 5 7 10 12 13 13 14 15 17 18 19 20 21 22 22 23 24 24 24 23 23 22 22 22 21 21 21 21 22 23 25 25 25
6 6 6 6 7 7 7 8 9 10 11 11 12 13 13 13 14 15 17 18 19 19 19 20 21 21 22 22 23 23 24 24 24 23 21 18 16 15 14 12 11 9 8 6 5 3 2 1 2 3 4 5 6 7 9 11 13 14 14 15 16 17 18 19 20 20 21 21 22 22 22 22 22 22 21 21 21 21 21 22 23 25 25 25 25
5 5 5 5 5 6 7 8 9 10 10 10 12 13 13 13 14 15 16 17 18 18 19 20 20 21 22 22 22 23 23 23 23 23 22 20 17 15 13 12 11 10 9 7 6 5 4 2 2 3 4 5 7 8 9 10 12 14 14 15 16 17 18 19 20 20 20 21 21 21 22 21 21 21 21 22 22 22 22 23 26 26 26 25 24
3 3 4 5 6 7 8 9 9 9 9 10 11 12 13 14 14 15 16 16 17 17 18 19 20 20 22 22 22 22 22 23 23 23 23 21 18 16 14 12 11 11 10 9 8 7 5 4 4 4 5 6 7 8 10 10 12 13 14 15 16 17 18 19 20 20 21 21 21 22 22 21 21 22 22 22 22 22 23 25 27 26 25 23 23
2 3 4 5 6 7 9 9 9 9 9 10 11 12 13 13 14 14 15 16 16 17 18 19 19 19 21 22 22 22 22 22 22 23 23 23 20 17 15 13 12 12 11 11 10 9 8 7 6 6 6 7 7 8 10 11 12 13 14 15 16 16 17 18 19 20 21 21 22 22 22 21 21 22 22 22 23 24 25 26 26 25 23 22 22
2 3 4 5 6 7 8 9 10 9 9 10 11 12 12 13 13 14 15 15 16 17 17 18 19 19 19 20 21 22 22 22 22 22 23 23 21 19 17 15 14 13 12 11 10 10 10 9 8 7 7 7 7 9 10 11 12 13 14 15 16 17 17 18 18 19 20 21 21 22 21 21 21 22 23 23 24 25 26 26 25 24 23 22 21
2 3 4 6 7 8 8 9 10 10 9 10 11 12 12 12 13 14 14 15 16 16 17 18 18 19 19 20 20 21 21 21 21 21 22 22 21 20 18 17 15 14 13 12 11 10 10 9 9 8 8 8 8 9 10 11 12 13 14 15 16 17 17 17 18 19 20 20 21 21 21 21 22 23 24 24 25 26 26 25 24 23 22 21 20
2 3 4 6 7 8 9 10 10 10 10 9 10 11 12 12 13 14 14 15 15 15 16 17 17 18 19 19 19 20 21 21 21 21 21 21 21 20 19 18 17 15 14 14 13 12 11 9 9 9 9 9 8 9 10 11 12 13 14 15 16 17 17 17 18 19 20 20 21 21 21 23 23 24 24 24 25 25 25 24 23 23 22 20 19
2 3 4 6 7 8 9 10 10 10 10 9 10 10 11 12 13 13 14 15 15 15 16 16 16 17 17 18 19 20 20 20 20 20 19 19 19 19 19 19 18 17 15 15 14 14 12 11 10 10 10 9 9 9 10 11 12 13 14 15 16 17 17 18 19 19 20 21 22 22 23 23 24 24 24 24 25 25 24 23 23 22 21 19 18
2 3 4 5 6 7 8 9 10 10 10 9 10 10 11 12 12 13 13 14 14 15 15 15 16 16 16 16 17 18 19 19 20 19 19 18 18 18 18 18 18 18 17 16 15 14 13 12 11 10 10 11 10 10 11 12 13 14 15 15 16 17 18 18 19 20 21 21 22 22 23 23 24 24 25 24 24 24 23 22 21 21 20 19 18
Wind_Direction
249 249 250 252 255 257 259 260 261 263 263 263 263 264 265 265 266 267 268 269 270 271 272 273 273 273 274 274 275 275 275 275 275 274 274 274 273 273 272 271 271 270 269 268 266 265 264 263 263 261 260 259 258 258 258 257 255 254 253 253 253 254 253 253 254 255 254 254 254 254 253 253 253 252 251 249 247 246 245 246 247 248 249 249 247
247 248 250 252 255 258 260 261 262 264 264 264 264 265 266 267 268 269 270 271 272 272 273 274 274 274 275 275 276 276 275 275 274 274 274 274 274 273 272 271 270 270 269 269 268 266 265 264 263 262 261 260 258 258 257 257 257 255 254 253 253 253 253 253 254 255 254 253 253 253 252 251 251 250 249 248 247 245 244 243 244 247 248 248 247
246 248 250 252 255 258 260 261 262 263 264 264 265 265 266 268 269 270 271 272 273 274 274 275 275 275 275 276 276 276 276 275 274 274 273 273 274 273 273 272 271 270 270 269 269 268 267 265 264 262 261 260 259 257 257 257 257 256 256 255 254 253 253 252 253 254 254 253 252 252 251 250 250 249 248 247 245 244 244 243 243 244 246 246 246
247 249 251 253 255 259 261 262 262 263 264 264 265 266 267 269 270 272 272 273 274 275 275 276 275 276 276 276 276 276 276 275 275 274 274 273 273 273 273 272 271 270 270 270 269 268 267 266 265 263 262 261 260 258 257 257 256 256 256 256 255 254 253 252 252 252 253 253 252 252 251 250 249 248 246 245 244 244 245 243 241 242 244 244 244
249 251 253 254 256 259 260 261 262 263 264 265 266 267 269 270 271 272 273 273 274 275 276 277 277 277 277 277 277 277 276 276 276 275 275 274 273 273 272 272 271 270 270 270 269 268 267 267 266 265 264 262 261 259 257 257 256 256 256 256 256 255 254 253 252 251 252 251 251 251 251 249 248 247 244 243 243 243 245 244 241 241 242 242 244
251 252 253 254 256 258 260 261 263 263 264 265 267 268 269 271 271 272 273 274 275 276 277 278 279 279 279 278 278 278 278 277 277 277 276 275 274 273 272 271 270 270 269 269 269 269 268 267 266 265 265 264 262 260 259 257 256 256 255 255 255 255 254 253 252 250 250 250 250 250 249 248 247 246 244 243 243 243 243 243 241 240 240 241 244
251 251 252 254 256 258 259 262 263 264 265 267 268 269 270 271 272 273 274 275 276 278 279 280 280 280 280 280 279 279 278 278 278 278 277 276 275 274 273 272 271 270 270 269 269 269 268 267 266 265 264 264 263 262 260 258 257 256 255 255 254 254 253 253 252 251 249 249 249 250 249 248 246 246 245 243 243 243 242 241 240 239 240 241 244
250 251 252 253 255 257 259 262 263 264 266 268 269 270 271 272 273 274 275 276 278 279 280 281 281 281 281 281 280 280 279 279 279 278 278 277 276 275 274 273 272 271 270 269 269 268 268 267 266 265 264 263 263 262 261 260 258 256 255 255 255 254 253 253 252 252 250 248 248 249 248 247 245 245 244 242 241 242 242 241 240 239 239 241 242
248 249 250 251 254 256 258 260 262 264 266 267 269 270 272 273 274 276 277 278 280 281 281 282 282 282 282 281 281 281 281 280 280 279 278 277 277 276 275 274 273 272 271 270 269 268 267 267 266 265 264 263 263 262 262 261 259 258 255 254 254 254 253 252 251 251 250 249 248 248 247 246 244 243 242 241 241 242 242 241 240 239 239 240 242
246 247 247 249 253 255 257 259 261 262 264 266 268 270 272 273 276 277 279 281 282 282 283 283 283 283 282 283 282 282 282 281 281 280 279 277 276 275 275 274 273 272 271 270 269 268 267 266 265 264 264 263 262 261 261 261 260 258 256 254 253 253 252 252 250 250 250 250 248 247 247 246 245 243 241 242 242 242 241 240 239 239 239 240 242
243 243 244 248 252 253 255 257 258 260 262 264 267 269 272 274 276 278 280 282 283 284 285 285 284 284 284 284 284 283 283 282 281 280 279 278 276 275 274 273 272 271 271 270 269 268 267 266 265 265 264 262 261 260 260 260 260 259 257 255 253 252 251 251 250 249 249 249 248 248 247 246 245 243 241 242 242 242 241 240 239 238 238 239 241
239 240 243 247 250 251 253 254 256 258 260 263 266 269 272 274 276 279 281 283 284 285 286 286 286 286 286 285 285 284 284 283 281 280 279 278 276 275 274 273 272 271 270 269 269 268 267 267 266 265 264 263 262 260 259 259 258 258 257 256 254 252 251 250 249 249 248 248 248 247 247 247 246 243 242 242 242 242 241 240 239 238 238 239 240
238 238 241 246 248 249 250 252 255 257 260 263 266 268 271 274 276 279 282 284 285 287 287 288 288 288 288 287 286 286 285 284 282 281 279 277 276 275 274 273 272 271 270 270 269 268 267 267 265 264 263 262 261 260 259 258 258 257 257 256 254 252 251 250 249 248 248 248 247 246 246 247 247 245 244 243 241 241 240 241 241 240 239 240 241
239 238 240 244 246 247 250 253 255 258 260 263 266 268 271 274 277 280 283 285 286 287 288 289 289 290 289 289 288 288 287 285 283 282 280 278 276 275 274 273 272 272 271 270 270 269 268 267 265 264 263 262 261 260 259 258 257 256 256 255 254 252 251 250 249 248 247 247 247 246 245 246 247 247 246 244 241 241 241 241 241 241 241 241 241
240 240 240 242 244 247 252 255 256 259 262 264 267 270 272 275 278 282 284 285 285 287 288 290 291 291 291 291 290 289 288 286 284 282 281 279 277 276 274 274 273 272 272 271 270 269 268 267 266 265 263 262 261 260 259 258 257 256 254 254 253 252 251 250 249 248 247 247 247 247 246 245 245 246 246 244 242 242 243 242 241 239 239 239 239
239 239 238 240 243 249 254 256 257 260 264 267 269 271 273 277 279 282 283 284 286 288 290 291 293 293 293 292 291 290 288 286 285 283 282 280 278 277 275 275 274 273 272 272 271 270 269 268 266 265 264 262 261 260 259 258 257 255 254 253 252 251 250 249 249 248 248 247 247 247 246 245 244 244 244 243 242 242 242 242 240 238 237 237 238
236 236 237 239 243 250 255 256 258 263 266 268 271 273 275 278 279 281 284 286 288 290 292 293 294 294 294 293 292 290 288 287 285 284 283 281 280 278 277 276 275 274 273 273 272 271 270 268 267 266 264 263 261 260 258 258 257 255 254 252 251 250 249 248 248 248 248 247 247 246 246 245 244 243 242 242 241 240 239 238 238 237 237 237 238
233 233 235 238 243 249 255 258 261 265 267 270 272 274 277 279 281 284 287 288 290 291 293 294 295 295 295 294 293 291 289 288 287 285 284 282 281 279 278 277 276 275 275 274 273 272 271 269 268 266 265 263 262 260 258 257 256 254 253 252 250 249 248 247 247 247 247 247 246 246 245 244 243 243 242 241 240 238 237 237 237 238 238 238 239
230 231 234 239 245 252 256 260 264 266 269 271 274 276 278 281 284 287 288 289 290 291 293 295 295 295 295 295 295 293 291 289 288 286 284 283 282 281 280 279 278 277 276 275 274 273 272 270 269 267 266 265 263 260 258 256 254 253 252 250 249 248 247 246 246 246 246 247 246 245 245 244 243 242 241 240 239 238 238 238 238 238 239 239 239
227 230 235 240 245 251 256 261 265 268 270 273 275 278 281 284 286 287 288 289 290 292 295 296 296 295 295 296 296 295 293 291 289 287 286 285 283 282 281 280 280 279 278 277 276 275 273 271 270 268 266 265 262 260 257 255 253 252 250 249 248 247 246 245 245 244 245 246 246 245 245 244 243 241 240 239 238 238 238 238 238 238 238 239 239
223 229 233 238 243 250 256 262 266 269 272 275 279 282 283 285 286 287 288 290 292 294 296 297 296 295 295 296 297 296 294 292 290 289 287 286 285 284 282 281 281 280 280 279 277 276 274 272 270 268 265 263 261 259 257 254 252 251 249 248 247 246 245 244 244 244 244 244 245 244 244 244 243 240 239 238 238 237 237 237 237 238 238 238 238
221 226 230 236 243 250 257 262 267 271 275 279 281 283 284 285 286 288 290 291 293 295 297 297 296 296 296 297 297 296 294 293 291 290 289 288 287 285 284 283 282 282 281 280 278 277 275 273 270 268 266 263 261 258 256 254 252 250 249 248 246 245 244 243 243 243 242 242 243 243 242 242 242 239 238 237 237 236 237 237 236 237 237 238 237
218 223 229 236 243 252 259 264 269 273 276 280 282 285 287 287 288 289 291 293 295 297 298 297 297 297 297 297 297 297 295 294 293 292 291 290 289 287 286 285 284 283 282 281 279 278 275 272 270 268 267 264 261 258 255 253 251 250 248 247 246 244 243 242 241 241 241 241 241 241 240 240 240 238 237 236 236 236 236 236 236 235 235 236 236
215 222 231 240 248 257 262 266 270 274 278 282 286 289 291 290 290 291 294 296 297 298 298 298 298 298 299 299 299 298 297 295 294 293 293 292 291 290 288 287 286 284 282 281 280 278 274 272 271 270 268 265 261 258 255 253 251 250 248 246 244 243 242 241 239 239 239 239 238 238 238 238 238 237 236 236 236 235 235 235 235 234 234 234 234
220 230 240 247 252 257 261 267 273 278 282 286 289 292 293 293 293 295 297 298 298 299 300 300 300 300 301 302 301 300 299 298 297 295 295 294 293 292 291 289 287 285 283 281 279 277 275 273 272 271 269 265 261 258 255 253 251 250 247 245 242 241 240 239 238 237 237 237 236 235 236 236 236 235 235 234 233 232 232 233 233 233 232 232 232
230 239 243 246 250 255 262 270 276 280 285 289 291 294 296 296 297 298 299 299 299 300 301 301 301 303 304 304 303 302 301 300 299 298 298 297 296 294 292 290 287 285 282 281 279 277 275 274 274 273 270 265 261 258 256 253 251 249 247 244 241 238 237 236 236 235 235 235 234 233 233 233 233 232 232 231 230 230 230 230 230 231 231 230 230
231 236 237 241 251 259 265 273 278 283 289 293 296 299 301 300 301 301 301 301 302 303 303 303 304 306 307 307 306 305 304 303 301 301 300 299 298 296 293 290 288 285 284 282 280 277 276 276 276 275 271 266 262 259 256 253 250 248 246 243 240 237 235 234 234 233 233 232 231 230 230 229 229 228 228 227 228 228 228 228 228 229 229 228 227
225 228 233 242 256 265 269 276 283 288 293 298 300 304 306 304 303 304 304 304 305 306 306 306 308 310 311 311 309 308 306 305 305 304 303 301 299 296 293 291 289 287 285 283 281 278 277 277 277 275 270 265 261 258 254 252 249 247 244 241 238 234 233 232 232 231 230 229 227 226 225 224 224 224 225 225 226 227 227 227 227 227 227 226 225
220 225 233 245 264 274 277 283 289 293 299 303 306 309 310 308 306 306 307 307 308 309 309 310 312 314 315 314 312 310 309 308 308 307 305 302 299 296 294 292 291 289 287 284 281 279 278 277 277 273 269 264 260 256 252 249 247 244 240 237 234 231 230 229 228 228 227 224 222 221 221 220 220 220 221 222 223 224 226 226 226 226 226 225 224
221 224 231 249 273 282 284 289 294 299 305 308 310 313 314 311 309 309 310 311 311 312 313 314 316 318 318 316 315 314 313 312 311 309 307 303 300 298 297 296 295 292 289 285 282 280 278 277 275 271 267 263 259 254 250 246 243 239 235 231 229 228 228 227 225 224 222 219 217 217 217 216 216 216 217 219 220 222 224 224 224 224 225 224 224
220 222 235 259 279 287 291 297 302 306 309 310 312 315 316 313 312 313 313 314 315 315 315 317 319 321 321 320 319 319 318 316 314 312 309 306 304 302 301 300 298 296 292 288 284 281 279 277 274 269 265 260 255 249 243 239 235 231 228 227 226 226 225 225 223 220 217 214 213 213 213 212 212 213 214 215 217 219 221 223 223 223 224 224 222
214 227 253 273 286 292 298 304 308 310 311 312 315 317 316 315 317 318 318 318 317 316 318 320 322 323 325 325 325 324 323 321 318 316 313 311 309 307 305 304 303 300 297 293 287 283 281 277 272 266 260 254 247 240 232 228 225 223 222 223 224 224 223 221 217 213 210 209 208 208 208 208 209 211 211 213 215 218 220 222 223 223 224 223 221
210 242 271 286 294 300 307 312 313 313 313 315 317 319 319 319 321 323 323 322 319 319 322 324 323 325 329 330 330 329 327 325 323 320 319 317 314 312 309 307 304 302 301 298 291 286 283 278 269 260 253 246 239 231 224 223 223 223 223 222 223 222 218 213 208 205 204 204 204 204 204 205 206 208 209 212 214 217 219 221 222 222 222 220 218
231 262 278 288 298 307 314 316 316 315 315 315 318 320 321 321 323 325 326 325 323 324 327 327 326 329 332 334 334 333 332 330 327 325 324 322 320 316 312 309 306 304 304 303 298 291 285 278 266 254 247 240 231 223 220 221 223 225 225 222 219 215 209 204 201 199 199 199 199 200 201 203 204 205 208 210 213 215 218 220 222 221 218 216 214
256 268 277 286 299 311 317 318 318 317 316 316 319 321 322 324 327 328 328 327 326 328 330 330 330 333 335 336 337 338 337 335 332 329 328 328 327 324 319 314 311 308 307 308 306 297 286 276 264 250 241 235 226 220 218 218 218 220 220 215 210 206 202 198 196 195 195 196 197 199 200 201 202 204 207 210 213 214 217 220 220 218 214 211 210
257 268 280 290 303 312 317 318 318 317 317 320 321 321 323 328 330 330 330 331 331 333 333 333 335 337 338 339 341 342 341 339 336 332 331 332 333 332 329 324 318 313 310 310 308 299 285 275 263 247 236 230 223 218 216 214 214 214 213 209 204 200 197 194 193 193 194 196 197 198 198 199 200 202 205 210 213 215 216 218 216 213 210 209 209
260 277 290 299 307 313 317 317 317 317 320 322 321 321 325 329 332 333 334 335 336 337 337 337 338 341 342 343 344 345 345 343 340 337 336 336 337 337 335 329 324 321 316 312 308 298 284 273 261 244 232 224 218 215 213 210 209 208 207 204 201 197 194 192 192 192 194 196 197 198 198 199 201 204 207 211 213 214 216 215 211 209 209 209 208
273 288 298 305 310 314 316 316 317 321 323 321 321 324 327 329 333 338 339 339 340 341 341 341 343 345 346 346 348 349 349 348 345 343 343 343 343 341 338 333 329 327 323 318 313 301 282 267 256 240 228 220 215 212 208 205 205 204 202 199 196 193 191 191 191 192 193 194 195 196 198 200 203 207 210 212 212 212 213 211 208 206 206 205 204
285 297 305 310 312 314 315 314 316 321 323 321 321 326 328 329 334 340 342 343 344 345 344 344 347 349 349 350 351 352 353 354 352 349 347 349 349 347 343 338 335 334 332 328 324 315 288 258 245 233 225 220 214 209 204 200 200 201 199 195 192 189 189 189 190 190 192 193 194 195 198 201 204 206 209 210 210 209 209 207 204 203 202 200 199
294 304 309 311 312 313 314 315 318 322 325 324 323 326 328 330 335 340 343 344 346 347 346 347 350 353 353 353 355 356 357 358 357 353 350 350 352 351 349 345 342 340 338 334 329 322 294 251 236 225 220 217 212 205 199 196 195 195 195 194 191 188 187 188 188 189 190 192 193 194 197 200 202 203 205 206 206 204 203 200 199 198 196 195 195
301 306 308 310 311 314 317 321 325 330 331 328 325 326 330 332 335 340 344 346 347 349 350 351 353 355 356 357 358 360 0 0 1 359 357 355 356 356 356 354 351 347 344 340 333 315 279 252 225 207 203 201 199 197 196 193 191 190 190 191 190 188 187 186 186 187 187 188 189 192 195 198 198 198 199 200 199 197 195 194 194 192 190 188 189
304 307 309 310 313 318 322 327 333 336 335 333 331 331 333 336 337 341 347 350 351 352 354 355 357 358 359 0 2 3 4 4 6 6 4 1 0 1 1 2 1 359 357 354 349 334 293 238 203 193 191 188 186 189 192 192 190 189 188 186 185 185 185 184 184 184 185 186 188 190 192 193 193 193 194 194 192 190 191 192 191 188 185 185 185
295 305 314 319 324 328 330 335 339 339 339 339 340 339 340 340 339 341 347 352 354 356 358 359 0 2 3 3 5 6 7 8 9 10 9 7 5 6 8 10 12 15 16 16 17 20 30 116 171 181 188 189 185 184 185 186 186 185 186 184 181 180 180 180 180 181 182 183 184 186 187 187 188 189 190 189 188 189 191 190 186 183 182 183 183
292 302 313 325 335 337 336 339 342 341 342 346 349 351 352 353 351 350 353 355 355 358 2 3 3 5 6 6 7 8 10 11 12 13 13 13 12 13 15 18 21 23 27 32 38 45 55 73 112 145 163 174 177 176 178 180 180 180 182 183 181 180 180 180 181 181 182 182 183 184 185 185 186 187 186 186 187 188 187 184 181 180 180 180 180
319 327 330 334 339 340 341 343 345 346 349 355 358 359 0 1 360 1 2 1 358 360 4 6 6 7 8 9 10 11 12 14 15 15 16 18 21 22 23 27 30 31 34 41 47 52 59 73 92 114 135 150 160 166 170 172 173 174 177 179 180 181 182 183 183 183 183 183 183 183 183 184 184 185 185 185 186 184 180 178 178 179 179 179 179
341 358 359 353 348 348 348 350 352 355 357 359 360 0 0 1 1 2 3 4 4 5 6 8 9 9 9 11 12 13 14 16 17 18 19 22 26 28 30 35 39 40 40 45 50 53 60 71 82 99 119 131 139 149 156 160 163 165 167 169 171 173 175 177 177 178 179 179 179 179 180 181 182 182 182 182 180 178 175 175 175 176 176 177 177
340 346 348 348 347 347 348 351 355 357 355 354 356 358 359 0 1 1 1 4 7 8 9 11 13 12 11 12 13 14 15 17 19 20 22 24 28 31 35 39 42 44 45 46 49 53 59 67 76 90 106 116 123 135 144 149 152 154 155 157 161 163 165 167 168 170 172 174 175 175 176 177 177 177 175 174 174 173 172 172 172 173 174 175 175
331 331 335 340 341 341 341 344 348 350 350 350 353 354 355 357 358 359 359 1 4 6 9 11 13 15 15 14 15 16 17 19 20 22 24 26 28 32 35 38 41 44 47 48 49 52 58 65 73 84 94 103 113 127 137 142 144 144 146 150 153 155 157 160 164 166 166 167 169 170 170 170 170 169 169 168 169 170 170 170 171 173 174 174 174
324 332 337 340 342 341 340 340 342 343 344 345 348 350 351 353 354 355 356 358 0 4 7 9 11 14 16 16 17 17 19 19 20 23 26 28 30 32 34 36 38 42 46 49 51 53 57 64 72 80 87 94 104 118 130 136 139 140 141 143 146 147 147 151 157 160 161 163 165 166 165 163 163 164 164 164 164 165 167 169 170 172 173 173 174
324 337 341 342 343 344 343 344 344 343 342 342 344 346 347 348 349 350 352 353 356 359 3 7 9 12 14 16 18 19 20 20 21 22 24 28 31 33 34 36 38 42 45 49 53 55 59 65 73 80 85 90 98 111 124 133 137 138 138 139 141 143 143 144 147 151 154 155 157 158 160 160 160 160 160 161 162 164 167 169 171 172 173 174 174
316 330 334 336 339 341 343 345 347 346 343 342 343 343 344 345 346 348 349 350 352 354 358 3 6 9 12 14 17 19 21 22 22 22 23 26 30 34 36 37 39 42 46 50 54 58 61 67 73 79 84 88 93 105 119 128 134 137 138 138 140 143 145 146 147 148 150 152 154 157 159 160 161 161 162 164 166 168 169 170 171 171 171 171 172